Weather in Manila

Philippines     14°35′46″N   120°59′03″E
temp.,
°C
wind,
m/s
gust,
m/s
humid.,
%
clouds,
%
prec.,
mm/h
press.,
hPa
HPBL,
m
18 january, mon
mon1823:00+25n2283100 4.0 1011382
02:00+25ne2681100 6.4 1010518
05:00+26ene2674100 0.8 1009724
08:00+26ene41173100 1.3 1011980
11:00+28ene6116899 0.2 10111287
14:00+29ene796194 0.6 10091098
17:00+27ene5971100 0.3 1009936
20:00+27e51072100 0.5 1011896
19 january, tue
tue1923:00+26e71173100 0.0 1012924
02:00+26e61073100 0.1 1010944
05:00+26ene4773100 0.0 1009816
08:00+26ne3673100 0.1 1011619
11:00+27ne4873100 0.3 1010793
14:00+28ene71268100 1.2 10091354
17:00+27ene71370100 1.1 10091262
20:00+27ene61174100 1.3 10111058
20 january, wed
wed2023:00+27ene51175100 0.3 10111046
02:00+26e61076100 0.4 1009931
05:00+26ene3772100 0.1 1009809
08:00+26ne2577100 1.2 1010444
11:00+26n1476100 1.1 1010466
14:00+27nne2573100 2.0 1008846
17:00+27ene3874100 0.9 1008976
20:00+27ne2577100 1.8 1009446
21 january, thu
thu2123:00+26nnw2381100 0.2 1009248
02:00+25ne3488100 2.6 1008365
05:00+25nne2291100 3.9 1008202
08:00+25n5691100 6.8 1009278
11:00+26nnw5583100 1.4 1008416
14:00+29nw227195 2.3 1006588
17:00+28s227495 4.3 1006262
20:00+27ese237697 7.3 1008268
22 january, fri
fri2223:00+26se4679100 3.1 1009432
02:00+26ese4583100 6.2 1007314
05:00+26se458497 3.4 1007401
08:00+27ese358073 5.8 1008441
11:00+29se457144 2.7 1009503
14:00+28wsw347566 10.2 1006317
17:00+28sw3476100 4.8 1006290
20:00+27sw127874 6.4 1008170